This is the latest recevied weather packets stored in our database for station/object WX7FGZ-3. If no packets are shown the sender has not sent any weather packets the latest 10 day(s).
| Time | Temp. | Humidity | Pressure | Rain* | Wind** | Luminosity | Snow |
|---|---|---|---|---|---|---|---|
| 1777753010 | 15.56° C | 34% | 1017.9 hPa | 0 mm | - | - | - |
| 1777751208 | 15° C | 33% | 1018.1 hPa | 0 mm | - | - | - |
| 1777750908 | 14.44° C | 34% | 1018 hPa | 0 mm | - | - | - |
| 1777749107 | 13.89° C | 33% | 1018.3 hPa | 0 mm | - | - | - |
| 1777748506 | 14.44° C | 32% | 1018.4 hPa | 0 mm | - | - | - |
| 1777747605 | 15° C | 34% | 1018.6 hPa | 0 mm | - | - | - |
| 1777747005 | 15° C | 31% | 1018.6 hPa | 0 mm | - | - | - |
| 1777746704 | 15.56° C | 30% | 1018.7 hPa | 0 mm | - | - | - |
| 1777746104 | 16.11° C | 34% | 1018.8 hPa | 0 mm | - | - | - |
| 1777745503 | 14.44° C | 33% | 1018.9 hPa | 0 mm | - | - | - |
| 1777745203 | 14.44° C | 32% | 1019 hPa | 0 mm | - | - | - |
| 1777744903 | 15° C | 32% | 1019.1 hPa | 0 mm | - | - | - |
| 1777744602 | 15° C | 34% | 1019 hPa | 0 mm | - | - | - |
| 1777744302 | 14.44° C | 35% | 1019.2 hPa | 0 mm | - | - | - |
| 1777744002 | 14.44° C | 33% | 1019.2 hPa | 0 mm | - | - | - |
| 1777743403 | 15° C | 30% | 1019.1 hPa | 0 mm | - | - | - |
| 1777743101 | 15.56° C | 32% | 1018.9 hPa | 0 mm | - | - | - |
| 1777741899 | 15° C | 27% | 1019.2 hPa | 0 mm | - | - | - |
| 1777741599 | 15.56° C | 23% | 1019.1 hPa | 0 mm | - | - | - |
| 1777740999 | 15.56° C | 23% | 1019.3 hPa | 0 mm | - | - | - |
| 1777740698 | 15.56° C | 24% | 1019.1 hPa | 0 mm | - | - | - |
| 1777740398 | 15° C | 28% | 1019.3 hPa | 0 mm | - | - | - |
| 1777740098 | 14.44° C | 30% | 1019.2 hPa | 0 mm | - | - | - |
| 1777738296 | 14.44° C | 35% | 1019.3 hPa | 0 mm | - | - | - |
| 1777737695 | 13.89° C | 34% | 1019.5 hPa | 0 mm | - | - | - |
* Rain latest hour (hover to see other rain measurements)
** Current wind speed in m/s (hover to see current wind gust speed)